Time,TemperatureF,DewpointF,PressureIn,WindDirection,WindDirectionDegrees,WindSpeedMPH,WindSpeedGustMPH,Humidity,HourlyPrecipIn,Conditions,Clouds,dailyrainin,SolarRadiationWatts/m^2,SoftwareType,DateUTC
2013-08-08 00:01:00,51.0,45.0,-100.00,NW,315,3.0,7.0,80,0.00,,,0.00,0.000000,,2013-08-08 07:01:00,
2013-08-08 00:12:00,51.0,45.0,-100.00,NW,315,3.0,7.0,80,0.00,,,0.00,0.000000,,2013-08-08 07:12:00,
2013-08-08 00:22:00,51.0,45.0,-100.00,NW,315,3.0,7.0,80,0.00,,,0.00,0.000000,,2013-08-08 07:22:00,
2013-08-08 00:32:00,51.0,45.0,-100.00,NW,315,3.0,7.0,80,0.00,,,0.00,0.000000,,2013-08-08 07:32:00,
2013-08-08 01:01:00,49.0,45.0,-100.00,NW,320,2.0,5.0,86,0.00,,,0.00,0.000000,,2013-08-08 08:01:00,
2013-08-08 01:11:00,49.0,45.0,-100.00,NW,320,2.0,5.0,86,0.00,,,0.00,0.000000,,2013-08-08 08:11:00,
2013-08-08 01:21:00,49.0,45.0,-100.00,NW,320,2.0,5.0,86,0.00,,,0.00,0.000000,,2013-08-08 08:21:00,
2013-08-08 01:32:00,49.0,45.0,-100.00,NW,320,2.0,5.0,86,0.00,,,0.00,0.000000,,2013-08-08 08:32:00,
2013-08-08 02:01:00,49.0,46.0,-100.00,NW,317,3.0,7.0,88,0.00,,,0.00,0.000000,,2013-08-08 09:01:00,
2013-08-08 02:12:00,49.0,46.0,-100.00,NW,317,3.0,7.0,88,0.00,,,0.00,0.000000,,2013-08-08 09:12:00,
2013-08-08 02:22:00,49.0,46.0,-100.00,NW,317,3.0,7.0,88,0.00,,,0.00,0.000000,,2013-08-08 09:22:00,
2013-08-08 02:32:00,49.0,46.0,-100.00,NW,317,3.0,7.0,88,0.00,,,0.00,0.000000,,2013-08-08 09:32:00,
2013-08-08 03:01:00,47.0,45.0,-100.00,NW,317,3.0,5.0,91,0.00,,,0.00,0.000000,,2013-08-08 10:01:00,
2013-08-08 03:11:00,47.0,45.0,-100.00,NW,317,3.0,5.0,91,0.00,,,0.00,0.000000,,2013-08-08 10:11:00,
2013-08-08 03:22:00,47.0,45.0,-100.00,NW,317,3.0,5.0,91,0.00,,,0.00,0.000000,,2013-08-08 10:22:00,
2013-08-08 03:32:00,47.0,45.0,-100.00,NW,317,3.0,5.0,91,0.00,,,0.00,0.000000,,2013-08-08 10:32:00,
2013-08-08 04:01:00,46.0,44.0,-100.00,NW,317,2.0,5.0,94,0.00,,,-99.99,0.000000,,2013-08-08 11:01:00,
2013-08-08 04:11:00,46.0,44.0,-100.00,NW,317,2.0,5.0,94,0.00,,,-99.99,0.000000,,2013-08-08 11:11:00,
2013-08-08 04:21:00,46.0,44.0,-100.00,NW,317,2.0,5.0,94,0.00,,,-99.99,0.000000,,2013-08-08 11:21:00,
2013-08-08 04:32:00,46.0,44.0,-100.00,NW,317,2.0,5.0,94,0.00,,,-99.99,0.000000,,2013-08-08 11:32:00,
2013-08-08 05:01:00,45.0,43.0,-100.00,NNW,330,1.0,5.0,94,0.00,,,0.00,0.000000,,2013-08-08 12:01:00,
2013-08-08 05:11:00,45.0,43.0,-100.00,NNW,330,1.0,5.0,94,0.00,,,0.00,0.000000,,2013-08-08 12:11:00,
2013-08-08 05:21:00,45.0,43.0,-100.00,NNW,330,1.0,5.0,94,0.00,,,0.00,0.000000,,2013-08-08 12:21:00,
2013-08-08 05:32:00,45.0,43.0,-100.00,NNW,330,1.0,5.0,94,0.00,,,0.00,0.000000,,2013-08-08 12:32:00,
2013-08-08 06:01:00,45.0,43.0,-100.00,NW,314,2.0,4.0,94,0.00,,,0.00,0.000000,,2013-08-08 13:01:00,
2013-08-08 06:11:00,45.0,43.0,-100.00,NW,314,2.0,4.0,94,0.00,,,0.00,0.000000,,2013-08-08 13:11:00,
2013-08-08 06:22:00,45.0,43.0,-100.00,NW,314,2.0,4.0,94,0.00,,,0.00,0.000000,,2013-08-08 13:22:00,
2013-08-08 06:32:00,45.0,43.0,-100.00,NW,314,2.0,4.0,94,0.00,,,0.00,0.000000,,2013-08-08 13:32:00,
2013-08-08 07:02:00,46.0,44.0,-100.00,NW,313,2.0,4.0,93,0.00,,,0.00,8.000000,,2013-08-08 14:02:00,
2013-08-08 07:11:00,46.0,44.0,-100.00,NW,313,2.0,4.0,93,0.00,,,0.00,8.000000,,2013-08-08 14:11:00,
2013-08-08 07:22:00,46.0,44.0,-100.00,NW,313,2.0,4.0,93,0.00,,,0.00,8.000000,,2013-08-08 14:22:00,
2013-08-08 07:32:00,46.0,44.0,-100.00,NW,313,2.0,4.0,93,0.00,,,0.00,8.000000,,2013-08-08 14:32:00,
2013-08-08 08:02:00,46.0,44.0,-100.00,NNW,328,2.0,4.0,92,0.00,,,0.00,17.000000,,2013-08-08 15:02:00,
2013-08-08 08:11:00,46.0,44.0,-100.00,NNW,328,2.0,4.0,92,0.00,,,0.00,17.000000,,2013-08-08 15:11:00,
2013-08-08 08:22:00,46.0,44.0,-100.00,NNW,328,2.0,4.0,92,0.00,,,0.00,17.000000,,2013-08-08 15:22:00,
2013-08-08 08:32:00,46.0,44.0,-100.00,NNW,328,2.0,4.0,92,0.00,,,0.00,17.000000,,2013-08-08 15:32:00,
2013-08-08 09:01:00,55.0,45.0,-100.00,NW,314,4.0,8.0,69,0.00,,,0.00,220.000000,,2013-08-08 16:01:00,
2013-08-08 09:11:00,55.0,45.0,-100.00,NW,314,4.0,8.0,69,0.00,,,0.00,220.000000,,2013-08-08 16:11:00,
2013-08-08 09:22:00,55.0,45.0,-100.00,NW,314,4.0,8.0,69,0.00,,,0.00,220.000000,,2013-08-08 16:22:00,
2013-08-08 09:32:00,55.0,45.0,-100.00,NW,314,4.0,8.0,69,0.00,,,0.00,220.000000,,2013-08-08 16:32:00,
2013-08-08 10:01:00,60.0,48.0,-100.00,NW,312,3.0,7.0,64,0.00,,,0.00,469.000000,,2013-08-08 17:01:00,
2013-08-08 10:11:00,60.0,48.0,-100.00,NW,312,3.0,7.0,64,0.00,,,0.00,469.000000,,2013-08-08 17:11:00,
2013-08-08 10:21:00,60.0,48.0,-100.00,NW,312,3.0,7.0,64,0.00,,,0.00,469.000000,,2013-08-08 17:21:00,
2013-08-08 10:32:00,60.0,48.0,-100.00,NW,312,3.0,7.0,64,0.00,,,0.00,469.000000,,2013-08-08 17:32:00,
2013-08-08 11:01:00,63.0,48.0,-100.00,WNW,301,3.0,8.0,59,0.00,,,0.00,629.000000,,2013-08-08 18:01:00,
2013-08-08 11:11:00,63.0,48.0,-100.00,WNW,301,3.0,8.0,59,0.00,,,0.00,629.000000,,2013-08-08 18:11:00,
2013-08-08 11:21:00,63.0,48.0,-100.00,WNW,301,3.0,8.0,59,0.00,,,0.00,629.000000,,2013-08-08 18:21:00,
2013-08-08 11:32:00,63.0,48.0,-100.00,WNW,301,3.0,8.0,59,0.00,,,0.00,629.000000,,2013-08-08 18:32:00,
2013-08-08 12:01:00,67.0,50.0,-100.00,WNW,289,3.0,5.0,54,0.00,,,0.00,752.000000,,2013-08-08 19:01:00,
2013-08-08 12:11:00,67.0,50.0,-100.00,WNW,289,3.0,5.0,54,0.00,,,0.00,752.000000,,2013-08-08 19:11:00,
2013-08-08 12:21:00,67.0,50.0,-100.00,WNW,289,3.0,5.0,54,0.00,,,0.00,752.000000,,2013-08-08 19:21:00,
2013-08-08 12:32:00,67.0,50.0,-100.00,WNW,289,3.0,5.0,54,0.00,,,0.00,752.000000,,2013-08-08 19:32:00,
2013-08-08 13:02:00,71.0,51.0,-100.00,WNW,295,3.0,6.0,50,0.00,,,0.00,840.000000,,2013-08-08 20:02:00,
2013-08-08 13:11:00,71.0,51.0,-100.00,WNW,295,3.0,6.0,50,0.00,,,0.00,840.000000,,2013-08-08 20:11:00,
2013-08-08 13:22:00,71.0,51.0,-100.00,WNW,295,3.0,6.0,50,0.00,,,0.00,840.000000,,2013-08-08 20:22:00,
2013-08-08 13:32:00,71.0,51.0,-100.00,WNW,295,3.0,6.0,50,0.00,,,0.00,840.000000,,2013-08-08 20:32:00,
2013-08-08 14:01:00,72.0,49.0,-100.00,WNW,293,4.0,7.0,45,0.00,,,0.00,885.000000,,2013-08-08 21:01:00,
2013-08-08 14:12:00,72.0,49.0,-100.00,WNW,293,4.0,7.0,45,0.00,,,0.00,885.000000,,2013-08-08 21:12:00,
2013-08-08 14:22:00,72.0,49.0,-100.00,WNW,293,4.0,7.0,45,0.00,,,0.00,885.000000,,2013-08-08 21:22:00,
2013-08-08 14:32:00,72.0,49.0,-100.00,WNW,293,4.0,7.0,45,0.00,,,0.00,885.000000,,2013-08-08 21:32:00,
2013-08-08 15:04:00,73.0,49.0,-100.00,WNW,300,3.0,7.0,43,0.00,,,0.00,830.000000,,2013-08-08 22:04:00,
2013-08-08 15:22:00,73.0,49.0,-100.00,WNW,300,3.0,7.0,43,0.00,,,0.00,830.000000,,2013-08-08 22:22:00,
2013-08-08 15:32:00,73.0,49.0,-100.00,WNW,300,3.0,7.0,43,0.00,,,0.00,830.000000,,2013-08-08 22:32:00,
2013-08-08 16:04:00,75.0,48.0,-100.00,WNW,291,4.0,10.0,39,0.00,,,0.00,820.000000,,2013-08-08 23:04:00,
2013-08-08 16:13:00,75.0,48.0,-100.00,WNW,291,4.0,10.0,39,0.00,,,0.00,820.000000,,2013-08-08 23:13:00,
2013-08-08 16:23:00,75.0,48.0,-100.00,WNW,291,4.0,10.0,39,0.00,,,0.00,820.000000,,2013-08-08 23:23:00,
2013-08-08 16:32:00,75.0,48.0,-100.00,WNW,291,4.0,10.0,39,0.00,,,0.00,820.000000,,2013-08-08 23:32:00,
2013-08-08 17:03:00,75.0,47.0,-100.00,WNW,303,3.0,8.0,37,0.00,,,0.00,698.000000,,2013-08-09 00:03:00,
2013-08-08 17:13:00,75.0,47.0,-100.00,WNW,303,3.0,8.0,37,0.00,,,0.00,698.000000,,2013-08-09 00:13:00,
2013-08-08 17:23:00,75.0,47.0,-100.00,WNW,303,3.0,8.0,37,0.00,,,0.00,698.000000,,2013-08-09 00:23:00,
2013-08-08 17:32:00,75.0,47.0,-100.00,WNW,303,3.0,8.0,37,0.00,,,0.00,698.000000,,2013-08-09 00:32:00,
2013-08-08 18:02:00,74.0,47.0,-100.00,WNW,285,3.0,8.0,39,0.00,,,0.00,545.000000,,2013-08-09 01:02:00,
2013-08-08 18:23:00,74.0,47.0,-100.00,WNW,285,3.0,8.0,39,0.00,,,0.00,545.000000,,2013-08-09 01:23:00,
2013-08-08 18:32:00,74.0,47.0,-100.00,WNW,285,3.0,8.0,39,0.00,,,0.00,545.000000,,2013-08-09 01:32:00,
2013-08-08 18:33:00,68.0,45.0,-100.00,NW,304,3.0,7.0,44,0.00,,,0.00,220.000000,,2013-08-09 01:33:00,
2013-08-08 19:03:00,68.0,45.0,-100.00,NW,304,3.0,7.0,44,0.00,,,0.00,220.000000,,2013-08-09 02:03:00,
2013-08-08 19:12:00,68.0,45.0,-100.00,NW,304,3.0,7.0,44,0.00,,,0.00,220.000000,,2013-08-09 02:12:00,
2013-08-08 19:23:00,68.0,45.0,-100.00,NW,304,3.0,7.0,44,0.00,,,0.00,220.000000,,2013-08-09 02:23:00,
2013-08-08 19:33:00,64.0,44.0,-100.00,NW,308,3.0,7.0,48,0.00,,,0.00,57.000000,,2013-08-09 02:33:00,
2013-08-08 20:04:00,64.0,44.0,-100.00,NW,308,3.0,7.0,48,0.00,,,0.00,57.000000,,2013-08-09 03:04:00,
2013-08-08 20:12:00,64.0,44.0,-100.00,NW,308,3.0,7.0,48,0.00,,,0.00,57.000000,,2013-08-09 03:12:00,
2013-08-08 20:23:00,64.0,44.0,-100.00,NW,308,3.0,7.0,48,0.00,,,0.00,57.000000,,2013-08-09 03:23:00,
2013-08-08 20:33:00,59.0,46.0,-100.00,NNW,341,2.0,6.0,61,0.00,,,0.00,34.000000,,2013-08-09 03:33:00,
2013-08-08 21:01:00,59.0,46.0,-100.00,NNW,341,2.0,6.0,61,0.00,,,0.00,34.000000,,2013-08-09 04:01:00,
2013-08-08 21:12:00,59.0,46.0,-100.00,NNW,341,2.0,6.0,61,0.00,,,0.00,34.000000,,2013-08-09 04:12:00,
2013-08-08 21:22:00,59.0,46.0,-100.00,NNW,341,2.0,6.0,61,0.00,,,0.00,34.000000,,2013-08-09 04:22:00,
2013-08-08 22:01:00,54.0,46.0,-100.00,NW,316,2.0,4.0,74,0.00,,,0.00,2.000000,,2013-08-09 05:01:00,
2013-08-08 22:11:00,54.0,46.0,-100.00,NW,316,2.0,4.0,74,0.00,,,0.00,2.000000,,2013-08-09 05:11:00,
2013-08-08 22:21:00,54.0,46.0,-100.00,NW,316,2.0,4.0,74,0.00,,,0.00,2.000000,,2013-08-09 05:21:00,
2013-08-08 22:32:00,54.0,46.0,-100.00,NW,316,2.0,4.0,74,0.00,,,0.00,2.000000,,2013-08-09 05:32:00,
2013-08-08 23:01:00,53.0,47.0,-100.00,ENE,59,1.0,4.0,80,0.00,,,0.00,0.000000,,2013-08-09 06:01:00,
2013-08-08 23:11:00,53.0,47.0,-100.00,ENE,59,1.0,4.0,80,0.00,,,0.00,0.000000,,2013-08-09 06:11:00,
2013-08-08 23:21:00,53.0,47.0,-100.00,ENE,59,1.0,4.0,80,0.00,,,0.00,0.000000,,2013-08-09 06:21:00,
2013-08-08 23:32:00,53.0,47.0,-100.00,ENE,59,1.0,4.0,80,0.00,,,0.00,0.000000,,2013-08-09 06:32:00,
2013-08-08 23:33:00,52.0,47.0,-100.00,WNW,299,2.0,5.0,83,0.00,,,0.00,0.000000,,2013-08-09 06:33:00,